GFSFLT1_850_temp_000.txt.gz
Temp
19 19 19 18 17 16 16 16 15 15 14 13 13 12 12 11 10 10 11 10 9 9 9 9 8 8 8 8 7 7 7 7
19 19 18 17 17 16 16 15 15 14 14 14 13 13 12 11 11 10 10 9 10 9 9 8 8 7 7 7 7 7 6 6
17 17 17 17 17 16 16 15 14 14 14 13 13 12 12 11 11 10 10 9 9 9 9 9 8 7 7 7 7 6 6 6
17 17 17 16 16 16 15 14 14 14 13 13 12 12 12 12 11 11 10 10 9 9 9 9 8 7 7 7 6 6 6 6
17 16 16 16 15 15 15 14 14 13 13 13 12 12 12 12 12 11 10 10 10 9 8 8 7 7 7 6 6 6 5 5
16 16 16 15 15 14 14 14 13 13 12 12 12 12 12 11 12 11 11 10 10 9 8 8 7 7 6 6 5 5 4 4
16 16 15 14 14 13 13 12 12 12 12 12 12 11 11 11 11 11 11 10 9 9 8 7 7 6 6 5 4 3 4 3
16 15 15 14 14 14 13 12 12 12 12 11 11 11 11 11 11 10 10 9 9 7 7 6 5 4 4 3 3 3 2 2
15 14 13 13 13 13 12 12 12 12 11 11 11 10 10 10 10 9 9 8 6 5 4 3 3 2 2 1 0 0 -0 0
13 12 12 12 12 12 11 10 10 10 10 9 9 9 9 8 8 8 7 6 5 3 3 3 1 0 0 0 -1 0 -0 -0
12 12 11 11 11 11 11 11 9 9 8 7 7 7 7 7 7 6 5 4 3 3 1 -0 -1 -1 -2 -1 -1 -1 -1 -1
11 11 11 10 9 9 8 8 7 7 7 6 6 6 6 6 5 4 3 3 2 2 1 -0 -0 -0 -1 -1 -1 -1 -1 -2
10 10 9 9 9 8 7 7 7 6 5 5 5 5 5 4 3 3 2 1 1 0 0 -0 -1 -1 -1 -2 -2 -2 -2 -3
9 9 9 9 8 7 7 6 5 5 4 4 4 4 3 3 2 2 1 1 0 0 -0 -1 -1 -2 -2 -2 -3 -3 -3 -3
8 8 8 7 7 6 6 5 4 4 4 3 3 2 1 1 1 0 0 -1 -1 -0 -1 -2 -2 -2 -3 -3 -3 -4 -4 -4
8 8 7 6 6 6 5 4 4 3 2 2 2 1 0 -0 -1 -1 -1 -2 -1 -1 -2 -2 -3 -3 -3 -4 -4 -5 -5 -5
8 8 6 6 5 5 4 4 3 2 0 0 -0 -0 -1 -1 -1 -2 -2 -2 -2 -2 -2 -3 -3 -4 -4 -5 -5 -5 -6 -6
7 7 6 6 5 4 4 2 2 1 -0 -1 -1 -1 -1 -2 -2 -2 -2 -2 -2 -2 -3 -3 -4 -5 -5 -6 -6 -6 -7 -7
7 6 5 5 4 3 2 1 1 -0 -1 -1 -2 -2 -2 -2 -2 -2 -2 -2 -3 -3 -4 -5 -6 -6 -6 -7 -7 -7 -8 -9

GFSFLT1_850_temp_003.txt.gz
Temp
19 19 19 18 17 17 16 16 15 15 14 14 14 14 13 13 12 12 11 11 10 10 9 9 9 9 9 9 8 8 8 8
19 19 18 17 16 16 16 15 15 14 14 14 13 13 13 12 12 12 11 11 11 10 10 9 9 9 9 8 8 8 7 7
17 17 17 16 16 16 15 15 15 14 14 13 13 13 13 12 12 12 11 11 11 11 10 10 9 9 9 8 8 7 7 7
17 17 16 16 16 15 15 15 14 14 13 13 12 12 12 12 12 12 12 11 11 10 10 9 9 9 8 8 8 7 7 6
16 16 16 16 15 15 15 14 14 13 13 12 12 12 12 11 11 11 11 11 11 10 10 10 9 8 8 7 7 6 6 6
16 16 15 15 15 15 14 14 13 13 12 12 12 12 11 11 11 10 11 11 10 10 9 9 9 8 7 7 6 5 5 5
15 15 15 15 14 13 13 12 12 12 12 12 11 11 11 11 10 10 10 10 10 10 9 9 8 6 6 4 4 4 3 2
15 15 14 13 12 12 12 12 12 11 11 11 10 10 10 9 9 9 8 8 8 8 8 7 6 5 4 3 1 1 2 1
14 13 12 12 12 11 11 11 11 11 11 10 9 8 8 8 8 7 7 7 7 5 5 4 4 2 1 0 -0 -0 -1 -1
12 12 12 11 11 10 10 10 10 9 8 7 7 7 7 6 6 6 6 6 6 4 3 2 1 1 -1 -1 -0 -1 -2 -2
12 11 11 10 10 9 9 8 8 7 7 7 6 6 5 5 5 5 5 4 3 2 2 2 1 0 -0 -1 -0 -1 -1 -1
10 10 10 9 9 8 7 7 7 7 6 5 5 5 5 4 4 4 4 2 1 1 1 1 0 -1 -1 -1 -2 -2 -2 -2
10 10 9 9 8 7 7 7 6 6 5 4 4 4 4 3 3 3 2 1 1 -1 0 0 -1 -1 -1 -2 -2 -2 -2 -3
9 9 8 7 7 6 6 6 5 4 4 4 3 3 3 2 1 1 0 -0 -1 -1 -1 -1 -1 -2 -2 -2 -3 -3 -3 -4
8 7 7 7 6 6 6 5 5 4 4 3 2 1 1 0 -0 -1 -1 -2 -2 -3 -2 -2 -2 -2 -3 -3 -3 -4 -4 -5
7 7 7 6 6 6 5 4 4 3 2 1 -0 -1 -1 -1 -2 -2 -2 -2 -2 -3 -2 -2 -2 -3 -3 -4 -4 -5 -5 -5
6 6 6 6 6 5 4 3 2 1 0 -0 -1 -2 -2 -3 -2 -3 -3 -3 -3 -4 -3 -3 -3 -4 -4 -5 -6 -6 -6 -6
6 6 6 6 5 3 3 2 1 -0 -1 -1 -2 -2 -2 -3 -3 -3 -3 -3 -3 -3 -4 -4 -4 -5 -6 -6 -6 -7 -7 -7
4 5 5 5 3 3 2 1 0 -1 -1 -3 -3 -3 -3 -3 -3 -3 -3 -4 -4 -4 -4 -5 -5 -6 -7 -7 -7 -7 -8 -8

GFSFLT1_850_temp_006.txt.gz
Temp
18 18 18 17 16 16 16 15 15 15 14 14 14 13 13 13 12 12 12 12 11 11 11 11 10 10 10 9 9 9 9 8
18 18 18 17 16 16 15 15 15 15 14 14 13 13 13 12 12 12 12 12 11 11 11 11 10 10 10 9 9 9 8 8
17 17 17 16 16 16 16 15 15 14 14 13 13 12 12 12 12 12 11 11 11 10 10 11 11 10 10 9 9 9 8 8
17 16 17 16 16 15 15 15 14 14 13 13 12 12 12 12 11 11 11 11 10 10 10 10 10 10 10 9 9 9 8 8
16 16 16 16 15 15 14 14 14 13 12 12 11 11 11 11 10 10 10 10 10 10 10 10 9 9 9 9 8 8 7 7
16 16 15 15 15 14 13 13 12 12 12 11 11 11 10 10 10 9 9 9 9 9 9 9 9 9 8 8 7 7 6 5
15 14 14 14 13 12 12 12 12 11 11 11 10 9 9 9 9 9 9 9 8 8 8 8 8 7 6 5 6 5 4 4
13 13 12 12 12 11 11 11 10 10 10 10 10 9 9 8 8 8 8 7 7 6 6 6 6 4 3 4 3 3 2 1
13 12 11 11 11 10 10 9 9 9 9 8 8 7 7 6 6 6 6 5 5 5 5 4 3 2 1 1 -0 -1 -1 -1
12 12 11 11 11 10 10 9 9 8 7 7 6 6 6 6 6 5 5 5 5 4 3 2 1 0 0 -0 -1 -1 -1 -1
11 11 10 10 9 8 8 7 7 6 6 6 6 5 4 4 4 4 4 4 3 1 1 1 1 1 1 0 -1 -1 -1 -2
10 10 9 9 8 8 7 7 6 6 5 5 4 3 3 4 4 3 2 1 0 0 0 -0 -1 -1 -1 -1 -2 -2 -2 -2
9 9 8 8 7 7 6 6 6 5 4 4 3 3 3 2 2 1 -0 -0 -0 -1 -1 -3 -2 -2 -2 -2 -2 -2 -3 -3
8 8 8 7 6 6 6 5 5 4 3 3 2 2 1 1 -0 -0 -1 -1 -2 -3 -3 -3 -2 -2 -2 -2 -3 -3 -3 -4
7 7 6 6 6 5 5 5 4 3 2 2 1 0 -1 -1 -1 -1 -2 -2 -3 -3 -3 -4 -4 -3 -3 -3 -3 -4 -4 -4
6 6 6 6 5 5 5 3 3 2 1 0 -0 -2 -2 -2 -2 -2 -2 -3 -3 -3 -3 -4 -4 -4 -3 -4 -4 -5 -5 -5
4 4 4 4 5 4 3 3 2 1 -0 -1 -2 -2 -2 -3 -3 -3 -3 -4 -4 -4 -3 -4 -4 -4 -5 -6 -6 -6 -7 -7
4 4 5 4 3 3 2 2 0 -0 -1 -3 -3 -3 -3 -4 -3 -3 -3 -4 -4 -4 -4 -4 -5 -6 -6 -7 -7 -7 -7 -8
4 4 3 3 2 2 1 -0 -1 -1 -1 -2 -2 -3 -3 -3 -3 -4 -4 -4 -5 -5 -5 -6 -6 -7 -7 -7 -8 -8 -8 -9

GFSFLT1_850_temp_009.txt.gz
Temp
17 18 18 18 17 16 15 15 15 15 15 14 14 13 13 12 12 12 12 11 11 11 11 11 10 10 11 11 10 10 9 9
18 18 18 17 17 16 16 15 15 14 14 13 13 13 13 12 12 12 11 11 11 11 11 10 10 9 9 10 9 9 9 9
17 17 17 17 16 15 15 14 14 13 13 13 12 12 12 12 12 12 11 11 11 11 10 10 10 10 10 9 9 9 9 9
16 16 16 15 15 15 14 13 13 13 12 12 11 11 11 11 11 11 11 10 10 9 9 9 9 9 10 10 9 8 8 8
15 15 15 15 14 14 13 13 12 11 11 11 11 11 10 10 9 9 9 9 9 9 9 9 8 8 8 9 9 8 7 7
14 14 14 13 12 12 12 11 11 11 11 11 10 10 9 9 9 9 9 9 9 9 8 8 7 7 7 7 8 7 5 5
13 12 12 11 11 11 11 11 11 11 11 10 9 9 8 8 8 8 8 8 8 8 7 6 6 6 6 5 5 3 1 2
12 11 11 11 11 11 11 11 11 10 10 9 8 8 7 7 7 6 6 7 6 6 5 5 5 5 4 2 1 0 -0 -1
11 11 11 11 11 10 10 10 10 9 9 8 7 6 6 6 5 5 6 6 5 4 4 3 2 1 0 -0 -1 -1 -1 -1
10 10 10 10 10 10 9 8 8 7 7 6 6 5 4 4 4 4 5 5 3 2 1 0 0 0 -1 -1 -1 -1 -1 -2
10 10 10 9 8 7 7 7 6 6 5 5 4 3 3 3 4 3 3 3 1 -0 -0 -0 -1 -2 -2 -3 -4 -2 -2 -2
9 9 8 8 7 7 7 6 6 5 5 4 3 3 3 2 2 1 1 -0 -1 -1 -1 -2 -2 -2 -3 -3 -3 -2 -2 -2
8 8 7 7 7 7 6 6 5 5 4 3 3 2 1 1 0 -0 -1 -1 -2 -2 -2 -2 -2 -3 -3 -3 -3 -3 -3 -3
8 7 7 6 6 5 5 5 5 3 3 2 1 1 -0 -1 -2 -2 -2 -2 -2 -3 -3 -3 -3 -3 -4 -3 -3 -3 -4 -4
6 6 6 5 4 5 4 4 3 3 2 1 0 -1 -2 -2 -2 -3 -3 -3 -3 -3 -3 -4 -4 -3 -4 -4 -4 -4 -4 -4
5 4 4 4 4 4 4 3 2 2 0 -0 -1 -2 -2 -2 -3 -3 -3 -3 -3 -3 -3 -4 -4 -4 -4 -4 -4 -5 -6 -6
3 4 4 5 3 3 2 2 1 0 -1 -1 -2 -3 -3 -3 -3 -3 -3 -3 -4 -4 -4 -4 -4 -5 -5 -6 -6 -7 -7 -7
3 4 4 3 2 2 2 2 -0 -1 -1 -2 -3 -3 -3 -3 -3 -3 -4 -4 -5 -5 -5 -5 -6 -6 -7 -7 -8 -8 -9 -9
4 4 2 2 2 2 1 0 -1 -2 -2 -2 -3 -3 -3 -3 -4 -4 -5 -5 -5 -6 -6 -7 -7 -7 -8 -8 -8 -9 -10 -11